sat.trackr.live / text

‹ back to catalog

KUIPER-00405

NORAD 68923 · 2026-098E

PAYLOAD ACTIVE UNKNOWN

§ Identity

Operator
Country
US
Launch date
2026-04-30
Launch site
FRGUI
Launch vehicle
Mass (kg)
RCS (m²)

External: N2YO · Heavens-Above · Gunter

§ Orbital elements

Epoch: 2026-09-19T23:54:59.613120Z

Period
97.30 min
Inclination
51.9021°
Eccentricity
0.0000628
Mean motion
14.79927994 rev/d
Perigee alt
629.1 km
Apogee alt
630.0 km
Semi-major
7,007.7 km
B*
1.2283e-4
RAAN
1.4264°
Arg perigee
197.3635°
Mean anomaly
162.7306°
Rev number
2,148

§ Raw data

KUIPER-004051 68923U 26098E   26262.99652330  .00000715  00000+0  12283-3 0  99992 68923  51.9021   1.4264 0000628 197.3635 162.7306 14.79927994 21486

JSON: /api/v1/satellites/68923 · /tle

For live sub-satellite position, see the globe view (requires WebGL).

§ Visibility from observer

Set your observer location to see the next 7 days of passes ≥ 10°. The values pass through the URL so the page stays shareable.

No JS? Fill the form by hand. The geolocation button needs JavaScript.